Location: Newark
(49.3000°N, 9.4667°E)
Time: 14:55:32
(UTC+00:00)

OTV 5 (USA 277) - Visible Passes

Search period start: 22 April 2019 00:00
Search period end: 02 May 2019 00:00
Orbit: 309 x 326 km, 54.5° (Epoch: 21 April)

Date Brightness Start Highest point End Pass type
(mag) Time Alt. Az. Time Alt. Az. Time Alt. Az.
22 Apr ? 02:47:40 36° WSW 02:48:04 38° SW 02:50:34 10° SE visible
23 Apr ? 03:03:44 14° SSW 03:03:44 14° SSW 03:04:31 10° S visible
23 Apr ? 19:23:45 10° S 19:25:21 15° SE 19:25:21 15° SE visible
24 Apr ? 19:37:26 10° SSW 19:39:55 31° SE 19:41:45 15° E visible
24 Apr ? 21:11:34 10° W 21:12:45 21° W 21:12:45 21° W visible
25 Apr ? 19:51:50 10° SW 19:54:33 72° SSE 19:57:16 10° ENE visible
25 Apr ? 21:26:36 10° WNW 21:28:14 24° NW 21:28:14 24° NW visible
26 Apr ? 20:06:37 10° WSW 20:09:19 56° NNW 20:12:00 10° ENE visible
26 Apr ? 21:41:38 10° WNW 21:43:08 21° NW 21:43:08 21° NW visible
27 Apr ? 20:21:36 10° W 20:24:09 34° NNW 20:26:42 10° NE visible
27 Apr ? 21:56:34 10° NW 21:57:40 18° NW 21:57:40 18° NW visible
28 Apr ? 20:36:38 10° WNW 20:39:03 27° N 20:41:06 12° NE visible
28 Apr ? 22:11:22 10° NW 22:11:59 15° NW 22:11:59 15° NW visible
29 Apr ? 19:16:35 10° W 19:19:14 42° NNW 19:21:52 10° NE visible
29 Apr ? 20:51:38 10° WNW 20:53:59 25° N 20:55:18 18° NE visible
29 Apr ? 22:26:04 10° NW 22:26:11 11° NW 22:26:11 11° NW visible
30 Apr ? 19:31:37 10° WNW 19:34:06 30° NNW 19:36:35 10° NE visible
30 Apr ? 21:06:29 10° NW 21:08:55 28° N 21:09:25 26° NNE visible
01 May ? 19:46:39 10° WNW 19:49:01 26° N 19:51:23 10° ENE visible
01 May ? 21:21:13 10° NW 21:23:29 36° N 21:23:29 36° N visible
